TimeMDT,TemperatureF,Dew PointF,Humidity,Sea Level PressureIn,VisibilityMPH,Wind Direction,Wind SpeedMPH,Gust SpeedMPH,PrecipitationIn,Events,Conditions,WindDirDegrees,DateUTC
12:53 AM,63.0,51.1,65,29.48,10.0,SW,16.1,-,N/A,,Overcast,220,2013-09-23 06:53:00
1:53 AM,59.0,51.1,75,29.49,10.0,SW,23.0,32.2,0.00,Rain,Light Rain,230,2013-09-23 07:53:00
2:53 AM,55.9,48.9,77,29.43,10.0,South,13.8,-,0.01,,Clear,170,2013-09-23 08:53:00
3:53 AM,55.0,48.9,80,29.40,10.0,South,18.4,-,0.01,,Clear,190,2013-09-23 09:53:00
4:53 AM,55.9,46.9,72,29.40,10.0,SSW,17.3,26.5,N/A,,Clear,200,2013-09-23 10:53:00
5:53 AM,55.9,46.0,69,29.42,10.0,SSW,17.3,-,N/A,,Clear,210,2013-09-23 11:53:00
6:12 AM,55.4,44.6,67,29.58,10.0,WSW,18.4,24.2,N/A,,Clear,250,2013-09-23 12:12:00
6:53 AM,55.9,44.1,64,29.48,10.0,West,17.3,24.2,N/A,,Clear,280,2013-09-23 12:53:00
7:53 AM,57.0,46.0,67,29.52,10.0,West,26.5,34.5,0.00,Rain,Light Rain,270,2013-09-23 13:53:00
8:53 AM,62.1,46.0,56,29.52,10.0,West,29.9,39.1,0.00,,Partly Cloudy,280,2013-09-23 14:53:00
9:53 AM,64.0,46.0,52,29.55,10.0,WNW,20.7,-,0.00,,Overcast,290,2013-09-23 15:53:00
10:53 AM,66.9,43.0,42,29.58,4.0,NW,28.8,44.9,N/A,,Haze,310,2013-09-23 16:53:00
11:53 AM,69.1,44.1,40,29.62,10.0,WNW,18.4,26.5,N/A,,Overcast,300,2013-09-23 17:53:00
12:53 PM,69.1,44.1,40,29.65,10.0,WNW,15.0,20.7,N/A,,Overcast,300,2013-09-23 18:53:00
1:53 PM,71.1,46.0,41,29.67,10.0,WNW,8.1,-,0.00,,Partly Cloudy,290,2013-09-23 19:53:00
2:53 PM,73.9,43.0,33,29.69,10.0,NW,17.3,28.8,N/A,,Partly Cloudy,320,2013-09-23 20:53:00
3:53 PM,75.0,41.0,29,29.70,10.0,NNW,20.7,28.8,N/A,,Clear,330,2013-09-23 21:53:00
4:53 PM,73.9,43.0,33,29.73,10.0,NNW,17.3,27.6,N/A,,Clear,340,2013-09-23 22:53:00
5:53 PM,72.0,39.9,31,29.76,10.0,NNW,17.3,28.8,N/A,,Clear,340,2013-09-23 23:53:00
6:53 PM,66.0,43.0,43,29.79,10.0,North,9.2,-,N/A,,Clear,10,2013-09-24 00:53:00
7:53 PM,60.1,44.1,55,29.84,10.0,SW,4.6,-,N/A,,Clear,230,2013-09-24 01:53:00
8:53 PM,55.9,44.1,64,29.88,10.0,WSW,4.6,-,N/A,,Clear,250,2013-09-24 02:53:00
9:53 PM,57.0,44.1,62,29.89,10.0,WNW,4.6,-,N/A,,Clear,290,2013-09-24 03:53:00
10:53 PM,52.0,44.1,74,29.92,10.0,SSW,4.6,-,N/A,,Clear,210,2013-09-24 04:53:00
11:53 PM,50.0,44.1,80,29.94,10.0,SSW,4.6,-,N/A,,Clear,210,2013-09-24 05:53:00